sim
Sign-in with your pilot id or email,
or register
Callsign
Passwort

Schedule Details

Flight Number: RYR2175 (1)
Departure: Dortmund Airport (EDLW) at 17:45
Arrival: Thessaloniki International Airport (LGTS) at 20:30
Route: Ryanair Passenger Schedule. Enter filed route here before submitting Pirep.

Weather Information
Getting current METAR information for EDLW 230720Z 13003KT 080V210 CAVOK 18/11 Q1026
Getting current METAR information for LGTS 230720Z 27005KT CAVOK 29/19 Q1020 NOSIG

Schedule Frequency

Route Map